Temperature
17 17 17 17 17 17 17 17 17 17 17 17 17 17 16 16 16 16 16 16 16 16 16 16 16 16 16 16 16 16 16 16 17 17 17 17 17 16 16 16 15 15 15
17 17 17 17 17 17 17 17 17 17 17 17 17 17 16 16 16 16 16 16 16 16 16 16 15 16 16 16 16 16 16 16 16 16 16 16 16 16 16 16 16 15 15
17 17 17 17 17 17 17 17 17 17 17 17 17 17 16 16 16 16 16 16 16 15 16 15 15 15 15 15 15 16 16 16 16 16 16 16 16 16 15 15 15 15 15
17 17 17 17 17 18 17 17 17 17 17 17 17 17 16 16 16 16 16 16 16 16 15 15 15 15 15 15 15 15 15 15 15 15 15 15 16 15 15 15 15 15 15
17 17 17 17 17 17 17 17 17 17 17 17 17 16 16 16 16 16 16 16 16 16 16 15 15 15 15 15 15 15 15 15 15 15 15 15 15 15 15 15 15 15 15
18 17 17 17 17 17 17 17 17 17 17 17 17 17 16 16 16 16 16 16 16 16 15 15 15 15 15 15 15 15 14 14 14 14 14 14 15 15 15 15 14 14 14
18 17 17 17 17 17 17 17 17 17 17 17 16 16 16 16 16 16 16 16 16 15 15 15 15 15 15 14 14 14 14 14 14 14 14 14 14 14 14 14 14 14 14
18 17 17 17 17 17 17 17 17 16 16 16 16 16 16 16 16 16 16 15 15 15 15 14 14 14 14 14 14 14 14 14 14 13 13 14 13 13 13 13 13 13 13
17 17 17 17 17 16 16 16 16 16 16 16 16 16 15 15 15 15 15 15 15 14 14 14 14 14 14 14 13 13 13 13 13 13 13 13 13 13 13 13 12 12 12
17 17 17 16 16 16 16 16 16 16 16 16 15 15 15 15 15 15 15 14 14 14 14 13 13 13 13 13 13 13 13 13 12 12 12 12 12 12 12 12 12 12 11
16 16 16 16 16 16 15 15 15 15 15 15 15 15 14 14 14 14 14 14 14 13 13 13 13 13 12 12 12 12 12 12 12 12 12 12 12 12 12 12 12 11 11
16 15 15 15 15 15 15 15 15 15 14 14 14 14 14 13 13 13 13 13 13 12 12 12 12 12 12 12 11 11 11 11 11 11 11 11 11 11 11 11 11 11 11
15 15 14 14 14 14 14 14 14 14 14 13 13 13 12 12 12 12 12 12 12 12 11 11 11 11 11 11 11 11 10 10 10 10 10 10 10 10 10 10 10 10 10
14 14 14 14 13 14 13 13 13 13 13 13 12 12 12 12 12 12 11 11 11 11 11 11 11 10 10 10 10 10 10 10 9 9 9 9 9 9 9 9 9 9 9
13 13 13 13 13 13 13 12 12 12 12 12 12 11 11 11 11 11 11 11 10 10 10 10 10 10 9 9 9 9 9 9 9 9 8 8 8 8 8 8 8 8 8
12 12 12 12 12 12 12 12 11 11 11 11 11 11 11 10 10 10 10 10 10 9 9 9 9 9 9 8 8 8 8 8 8 7 7 7 7 7 7 7 7 7 7
12 12 12 11 11 11 11 11 11 11 11 10 10 10 10 10 9 9 9 9 9 9 9 8 8 8 7 7 7 7 7 7 7 6 6 6 6 6 6 6 6 6 6
12 11 11 11 11 11 11 11 11 10 10 10 9 9 9 9 8 8 8 8 8 8 7 7 7 7 7 6 6 6 6 6 6 6 6 5 5 5 5 5 5 5 5
11 11 11 11 11 11 11 11 10 10 10 9 8 8 8 8 8 7 7 7 7 7 6 6 6 6 6 5 5 5 5 5 5 5 5 5 5 5 4 4 4 4 4
11 11 11 11 11 11 11 10 10 10 9 8 8 8 8 7 7 7 6 6 6 6 6 5 5 5 5 5 4 4 4 4 4 4 4 4 4 3 3 3 3 3 3
11 11 11 11 10 10 10 10 9 9 8 8 7 7 7 7 6 6 6 5 5 5 4 4 4 4 4 3 3 3 3 3 3 3 3 3 3 3 3 2 3 3 3
11 10 10 10 10 9 9 9 9 8 8 7 7 7 6 6 6 5 5 5 4 4 4 3 3 3 2 2 2 2 2 2 2 2 2 2 2 2 2 2 2 2 2
10 10 10 9 9 9 9 8 8 8 7 7 6 6 6 5 5 4 4 4 3 3 3 3 2 2 2 2 1 1 1 1 1 1 1 1 1 1 1 1 1 2 2
10 10 9 9 9 8 8 7 7 7 6 6 6 5 5 5 4 4 3 3 3 2 2 2 2 2 1 1 1 1 1 1 1 1 1 1 1 1 1 1 1 1 1
9 9 9 8 8 7 7 6 6 6 5 5 5 4 4 4 3 3 3 2 2 2 2 2 1 1 1 1 0 0 0 0 1 1 1 1 1 1 1 1 1 1 1
8 8 8 7 7 6 6 6 5 5 5 4 4 4 3 3 2 2 2 2 2 1 1 1 1 1 1 0 0 0 0 0 0 1 1 1 1 0 1 1 1 1 1
Wind_Speed
10 9 8 9 8 8 6 6 5 5 6 7 8 8 8 8 7 6 6 6 6 6 5 4 4 4 3 3 2 2 3 3 3 3 2 3 4 3 6 10 10 12 15
9 8 8 8 8 8 7 6 6 6 6 7 8 8 8 8 7 7 8 7 7 7 6 6 6 5 4 3 3 3 3 2 2 3 2 1 3 5 6 6 8 11 13
10 9 9 9 8 8 7 7 6 6 6 7 8 8 8 7 8 8 7 7 6 6 6 6 5 5 5 4 4 4 3 4 3 3 4 3 3 4 5 6 7 6 11
12 11 10 10 9 8 7 7 7 7 6 7 8 8 7 7 6 7 6 6 5 5 5 5 5 5 5 5 5 4 4 5 4 3 4 4 3 4 3 4 5 5 7
11 12 11 10 9 8 8 8 7 7 8 7 6 6 5 5 5 5 5 7 5 5 4 4 5 5 5 5 5 3 4 4 4 4 5 4 4 3 3 3 4 4 5
9 10 10 9 9 9 8 8 7 7 6 6 6 5 5 6 6 6 5 5 4 5 5 4 5 5 5 6 6 5 3 4 4 4 4 4 4 3 3 3 3 4 5
8 8 8 9 9 8 9 8 7 7 6 5 5 4 4 3 3 5 5 3 3 4 4 4 5 4 4 4 5 6 6 8 7 4 5 5 5 4 3 4 4 5 6
7 6 7 7 7 7 6 6 6 5 5 4 5 5 4 2 3 4 4 4 3 3 2 2 2 2 2 1 3 4 5 6 7 7 7 7 6 4 4 5 6 6 7
7 5 5 5 6 5 5 4 4 4 4 3 3 3 3 2 3 3 3 3 3 3 2 1 1 1 1 2 2 3 4 4 6 8 9 10 11 10 7 4 5 6 7
6 5 4 4 5 5 5 4 3 3 4 3 3 2 3 3 4 4 2 1 1 2 1 2 3 2 1 2 2 3 4 5 5 6 6 9 10 11 12 8 7 7 7
7 7 7 6 5 6 5 4 4 5 5 5 5 4 4 4 6 5 3 1 1 1 1 1 2 2 2 2 2 3 4 5 5 6 6 6 5 5 5 6 6 6 7
10 10 9 8 7 7 7 6 5 5 5 5 5 4 4 5 6 5 4 3 4 2 2 2 2 1 2 3 3 3 5 5 4 5 5 4 4 3 3 3 5 7 8
12 11 10 10 9 8 8 7 6 5 5 4 5 5 5 6 6 7 5 4 5 3 3 4 2 2 3 3 3 4 4 3 3 4 5 4 4 4 3 3 4 5 7
12 11 10 10 11 11 9 8 8 7 6 6 6 6 6 6 6 5 4 4 4 4 4 3 3 3 3 3 2 2 2 2 3 3 4 5 5 4 4 4 4 5 5
10 10 10 11 11 11 11 10 10 8 7 7 7 7 6 6 5 6 5 4 4 3 4 3 1 1 1 2 2 2 2 2 2 3 4 5 5 5 4 4 4 5 5
8 8 8 8 8 8 9 10 15 12 14 15 13 9 7 7 5 7 7 7 7 6 4 3 3 4 4 4 4 4 3 4 4 4 4 5 5 6 6 6 5 6 6
8 7 6 6 6 7 7 7 7 8 11 12 11 11 9 6 6 6 7 8 6 4 3 4 4 5 5 6 6 6 6 5 5 5 5 5 5 6 6 6 6 6 6
8 8 6 5 5 5 5 5 5 6 6 5 5 6 5 4 4 6 7 6 4 5 5 5 6 6 6 6 6 6 6 6 6 5 6 6 5 6 6 6 6 6 7
7 6 5 5 4 5 5 5 5 6 6 6 5 3 2 1 2 5 7 6 6 6 7 7 7 7 6 6 6 6 6 6 6 6 6 6 6 7 7 7 7 8 8
6 6 5 4 5 6 6 6 6 6 7 7 6 5 4 3 4 5 5 6 7 7 7 7 7 7 7 7 7 7 7 7 8 8 8 8 7 7 8 9 8 8 8
5 5 4 6 7 7 6 6 6 6 7 7 6 6 7 5 6 7 7 7 7 7 7 7 7 7 7 7 7 8 9 8 8 9 9 9 9 8 8 8 8 8 8
4 5 6 7 7 6 5 5 6 6 6 6 5 5 6 6 7 7 6 7 7 6 6 6 7 7 7 8 8 8 8 9 9 10 10 10 9 9 9 9 8 8 8
4 6 7 6 6 5 5 7 7 7 7 7 6 6 6 6 6 6 6 6 6 6 7 6 6 6 8 9 9 8 8 8 8 9 10 10 10 9 9 10 10 10 9
6 7 7 7 6 6 7 7 7 7 7 7 7 6 6 6 6 7 7 6 6 7 8 8 7 8 10 10 9 10 9 11 12 11 12 11 11 10 9 9 10 10 10
6 7 7 7 7 7 7 7 7 7 7 6 6 6 7 7 7 7 7 6 7 7 8 8 8 9 11 12 12 12 13 15 14 13 12 10 11 11 10 10 9 9 10
7 7 7 7 7 7 6 6 6 6 6 6 6 6 7 7 7 7 7 7 8 7 8 9 11 12 12 12 13 13 15 17 17 17 13 10 10 10 10 8 11 9 10
Wind_Direction
169 171 167 169 171 167 173 174 168 174 167 175 183 183 187 188 189 197 222 196 197 213 225 219 222 260 299 307 264 249 257 259 268 278 250 168 160 170 170 212 219 210 215
168 165 165 166 169 172 177 173 169 177 183 186 191 192 196 195 192 196 218 215 202 209 219 221 215 224 223 263 291 291 275 264 261 278 284 229 204 198 189 213 232 233 231
166 167 167 170 174 178 182 179 178 183 191 196 197 197 201 197 194 203 211 225 218 215 216 217 219 227 224 229 233 267 286 277 238 252 263 252 238 224 203 221 244 253 260
171 172 174 179 182 181 184 185 184 181 189 199 197 199 201 201 198 204 206 215 222 224 225 222 223 222 221 231 241 244 265 283 286 271 273 267 255 241 217 225 251 246 253
172 173 177 181 181 181 184 188 188 188 197 193 191 193 198 201 206 206 211 216 214 221 227 228 229 224 224 222 237 236 247 250 262 261 262 267 263 262 243 239 259 269 258
172 177 176 178 181 184 187 191 191 193 197 191 193 191 196 213 210 195 202 226 210 214 226 231 236 227 223 222 231 239 238 250 258 268 271 271 274 275 272 266 269 280 278
172 176 173 178 183 187 192 189 190 192 193 190 190 187 195 212 184 173 195 228 233 224 226 233 248 243 205 214 228 238 246 246 236 249 267 277 292 302 305 294 284 279 276
165 176 172 176 182 183 188 190 188 185 186 189 188 189 180 187 161 169 192 212 240 244 232 229 231 277 293 250 237 237 241 245 236 234 242 252 263 279 283 281 279 279 269
162 163 162 171 173 168 174 176 173 175 178 176 167 169 168 164 140 152 177 203 212 238 245 247 227 193 348 323 270 272 271 266 256 248 244 251 255 258 258 273 275 275 276
124 128 133 140 144 146 149 150 152 151 149 148 122 111 110 100 98 100 135 206 230 240 186 118 76 88 62 1 303 286 280 287 294 286 265 263 256 253 243 233 248 260 271
100 97 95 101 110 112 114 113 117 119 120 122 115 104 102 97 102 96 95 52 359 354 23 88 82 69 36 352 298 281 281 293 293 284 278 271 262 254 244 235 237 245 258
85 83 80 77 82 88 92 94 104 116 119 118 113 104 93 83 77 83 78 51 15 13 15 33 39 8 319 300 288 294 305 301 288 291 289 285 284 286 280 269 261 252 251
85 81 77 73 69 67 73 78 80 80 86 93 95 91 80 69 62 59 62 46 22 17 19 27 3 293 287 272 249 277 298 300 304 306 306 310 312 308 310 301 290 279 271
87 85 82 76 72 64 58 59 62 56 58 64 71 74 75 63 47 34 37 36 25 25 360 336 294 267 278 310 308 271 260 289 305 311 321 322 323 323 317 316 310 309 297
85 87 88 83 78 73 66 54 61 55 62 68 65 65 62 60 37 27 29 22 6 10 340 316 333 6 12 7 355 354 342 347 344 336 329 322 318 320 320 325 319 309 300
85 82 84 89 91 92 92 79 57 64 67 69 69 75 77 72 52 33 25 9 359 360 355 359 13 13 12 6 356 354 1 4 352 339 333 331 332 330 326 326 319 310 308
79 79 82 88 92 96 102 101 95 73 64 64 68 72 75 63 39 22 11 354 344 357 18 18 19 15 11 10 5 1 358 356 350 343 341 336 332 327 323 320 319 322 324
74 74 71 76 81 87 93 103 110 114 109 94 77 74 72 51 19 4 357 358 31 43 31 25 24 21 17 13 7 360 351 347 348 340 333 330 328 323 320 319 321 325 321
65 65 63 71 74 75 72 76 81 85 90 99 94 68 27 30 30 9 7 22 32 31 29 29 24 19 14 11 3 356 350 345 346 339 335 336 334 329 324 322 319 320 315
75 60 53 66 71 68 68 68 69 75 78 77 69 49 23 35 55 47 45 34 30 30 27 25 23 17 14 11 6 1 357 354 351 349 347 343 339 334 328 325 322 318 313
94 89 72 60 63 57 55 58 60 64 71 73 71 53 21 34 45 43 40 35 31 27 26 18 14 14 15 9 3 358 357 356 357 354 349 342 335 328 322 317 314 312 312
66 74 70 68 64 56 51 58 63 66 68 71 71 68 43 35 45 44 39 37 33 31 27 13 10 16 14 5 359 356 359 3 359 349 341 333 329 324 317 313 312 312 311
63 76 79 76 74 71 61 58 55 55 55 51 47 48 46 38 39 39 34 31 25 24 22 13 11 15 13 5 5 13 12 1 345 333 327 322 319 317 316 312 309 310 311
58 65 73 73 69 63 59 58 56 53 53 48 45 43 43 42 37 35 34 28 18 17 13 8 10 8 9 11 12 16 11 352 338 327 322 312 308 306 308 309 309 310 308
61 63 65 66 67 65 61 57 55 52 49 47 46 43 38 36 36 30 30 23 11 12 7 8 11 10 12 20 20 9 356 348 341 331 318 306 302 302 303 304 305 305 305
64 64 66 68 67 64 64 64 60 54 51 49 48 45 41 40 36 25 21 17 7 9 6 8 15 21 22 24 13 3 354 346 339 331 318 303 299 302 309 308 310 310 308
Height
1498 1501 1505 1509 1513 1517 1521 1524 1527 1530 1532 1534 1537 1539 1541 1543 1544 1546 1548 1550 1551 1552 1553 1554 1555 1556 1557 1559 1560 1560 1561 1562 1562 1562 1563 1563 1563 1563 1563 1563 1562 1562 1562
1497 1500 1504 1508 1512 1515 1518 1522 1524 1527 1530 1532 1534 1536 1538 1541 1542 1544 1546 1547 1549 1550 1551 1552 1553 1554 1554 1555 1556 1557 1558 1559 1559 1559 1560 1560 1560 1560 1560 1559 1559 1559 1559
1496 1499 1503 1506 1510 1514 1517 1519 1522 1524 1526 1528 1530 1533 1536 1539 1540 1542 1543 1545 1546 1547 1548 1549 1550 1551 1551 1552 1553 1554 1555 1556 1556 1556 1556 1557 1556 1557 1556 1556 1556 1556 1556
1495 1498 1501 1505 1508 1512 1515 1518 1520 1522 1523 1525 1528 1531 1534 1536 1538 1539 1541 1542 1543 1545 1546 1546 1547 1547 1548 1549 1549 1550 1551 1552 1552 1552 1552 1553 1553 1553 1553 1552 1551 1551 1551
1494 1497 1500 1503 1507 1510 1513 1516 1518 1520 1522 1524 1526 1528 1530 1533 1534 1536 1538 1539 1540 1541 1542 1543 1543 1544 1544 1545 1546 1546 1547 1547 1548 1548 1548 1548 1549 1549 1548 1548 1547 1547 1547
1493 1496 1499 1502 1505 1508 1511 1514 1516 1518 1520 1522 1523 1525 1528 1529 1531 1533 1535 1536 1537 1537 1538 1539 1539 1540 1540 1541 1542 1542 1543 1543 1543 1543 1543 1544 1544 1544 1544 1544 1543 1542 1541
1492 1495 1498 1501 1503 1506 1509 1511 1514 1516 1518 1520 1521 1523 1525 1527 1529 1530 1531 1533 1533 1534 1534 1535 1535 1536 1536 1536 1537 1537 1538 1538 1538 1539 1538 1538 1539 1539 1539 1538 1538 1537 1536
1490 1494 1496 1499 1501 1504 1507 1509 1511 1513 1515 1517 1519 1521 1522 1524 1525 1526 1528 1529 1529 1530 1530 1531 1531 1531 1532 1532 1532 1532 1532 1532 1533 1533 1533 1533 1533 1534 1533 1533 1532 1531 1530
1489 1492 1495 1497 1500 1502 1504 1506 1509 1510 1512 1514 1516 1518 1519 1520 1522 1523 1524 1525 1526 1526 1527 1527 1527 1527 1527 1528 1528 1527 1527 1527 1527 1527 1527 1527 1527 1527 1527 1527 1525 1525 1523
1488 1490 1493 1495 1498 1500 1502 1504 1506 1508 1509 1512 1513 1514 1516 1517 1519 1520 1521 1522 1522 1523 1523 1523 1524 1524 1524 1523 1523 1523 1522 1522 1522 1522 1521 1521 1521 1521 1520 1520 1519 1518 1517
1487 1490 1492 1495 1497 1498 1500 1502 1504 1506 1507 1509 1510 1512 1514 1515 1516 1517 1518 1519 1519 1520 1520 1520 1520 1520 1520 1519 1519 1519 1518 1518 1517 1517 1516 1516 1515 1515 1515 1514 1513 1513 1512
1487 1489 1491 1494 1496 1498 1499 1501 1503 1505 1506 1508 1509 1510 1512 1513 1514 1514 1515 1516 1516 1516 1517 1516 1516 1516 1516 1516 1515 1515 1514 1514 1513 1513 1512 1511 1511 1510 1509 1509 1508 1507 1506
1488 1490 1492 1494 1496 1498 1500 1501 1503 1505 1506 1507 1508 1510 1510 1511 1512 1512 1513 1513 1514 1514 1514 1514 1514 1513 1513 1512 1512 1511 1511 1510 1509 1508 1508 1507 1506 1505 1504 1503 1502 1501 1500
1490 1492 1494 1496 1498 1500 1501 1502 1503 1504 1506 1507 1507 1509 1510 1511 1511 1511 1511 1512 1512 1512 1512 1511 1511 1511 1510 1510 1509 1508 1508 1507 1506 1505 1504 1503 1502 1501 1499 1498 1497 1495 1494
1493 1495 1497 1499 1500 1502 1503 1504 1505 1506 1508 1508 1508 1509 1510 1511 1511 1511 1511 1511 1511 1511 1511 1511 1510 1510 1509 1508 1507 1507 1506 1505 1503 1502 1501 1499 1498 1496 1495 1494 1492 1490 1489
1497 1499 1500 1502 1503 1505 1506 1507 1508 1509 1510 1511 1511 1511 1512 1513 1512 1512 1512 1512 1511 1511 1511 1510 1510 1509 1508 1507 1506 1505 1504 1503 1501 1499 1498 1497 1495 1493 1491 1489 1488 1487 1485
1501 1503 1504 1506 1507 1508 1510 1510 1510 1512 1513 1513 1513 1514 1514 1514 1513 1513 1512 1512 1512 1511 1511 1510 1510 1509 1508 1507 1506 1504 1503 1501 1499 1497 1495 1493 1491 1490 1488 1486 1484 1482 1480
1504 1506 1507 1509 1510 1511 1512 1513 1513 1514 1514 1515 1515 1515 1515 1515 1515 1514 1514 1513 1513 1512 1511 1511 1510 1509 1507 1506 1504 1502 1501 1499 1497 1495 1493 1491 1489 1486 1484 1482 1480 1479 1476
1508 1509 1510 1511 1513 1514 1514 1515 1516 1516 1517 1517 1517 1517 1517 1516 1516 1515 1515 1514 1514 1513 1512 1511 1509 1508 1507 1505 1503 1501 1500 1498 1496 1493 1491 1489 1486 1484 1481 1479 1477 1475 1473
1511 1512 1513 1514 1515 1516 1517 1518 1518 1518 1518 1519 1518 1518 1518 1518 1517 1516 1516 1515 1514 1513 1512 1511 1509 1508 1506 1504 1502 1500 1497 1495 1493 1491 1488 1486 1483 1481 1478 1476 1474 1472 1469
1515 1515 1516 1516 1517 1518 1519 1519 1520 1520 1520 1520 1520 1520 1519 1519 1518 1517 1517 1516 1515 1513 1512 1510 1509 1507 1504 1502 1500 1498 1496 1493 1491 1488 1485 1483 1480 1478 1475 1473 1470 1468 1465
1517 1517 1518 1518 1519 1520 1521 1521 1521 1521 1521 1521 1521 1521 1520 1520 1519 1518 1517 1516 1515 1513 1511 1510 1508 1506 1503 1501 1499 1496 1494 1491 1488 1485 1482 1480 1477 1474 1471 1469 1466 1464 1462
1519 1519 1520 1520 1521 1521 1522 1522 1522 1522 1522 1522 1522 1522 1521 1520 1519 1518 1517 1516 1514 1513 1511 1509 1507 1505 1502 1500 1497 1495 1491 1488 1486 1482 1479 1476 1473 1470 1468 1465 1462 1460 1458
1521 1521 1521 1522 1522 1522 1523 1523 1523 1523 1523 1523 1523 1522 1521 1520 1519 1518 1517 1515 1514 1512 1510 1508 1506 1504 1501 1498 1495 1492 1489 1486 1483 1479 1476 1473 1469 1467 1464 1462 1459 1457 1454
1522 1522 1523 1523 1523 1524 1524 1524 1524 1524 1524 1523 1523 1522 1521 1520 1519 1518 1516 1515 1513 1512 1510 1507 1505 1502 1499 1496 1493 1490 1487 1483 1480 1476 1473 1469 1466 1464 1461 1459 1456 1453 1451
1523 1523 1524 1524 1524 1524 1525 1525 1525 1525 1524 1524 1523 1522 1522 1521 1519 1518 1516 1515 1513 1511 1509 1507 1504 1501 1498 1494 1491 1487 1484 1480 1476 1473 1469 1466 1463 1461 1459 1456 1453 1450 1448